Torna al catalogo

BREEZE-M DEB

AttivoHEO
NORAD 41319·DEBRIS·🇷🇺 Russia

Lanciato May 17, 2012 da Baikonur Cosmodrome

Loading…

Prossimi Passaggi (prossime 24 ore)

TLE

AggiornatoSource: Space-Track

Epoca: Sep 14, 2026, 06:26 UTC

1 41319U 12026F   26257.26862837 -.00000124  00000-0  00000-0 0  9991
2 41319  10.1868 133.9659 4096554  53.1799 337.9657  1.76695658 69195

Traccia BREEZE-M DEB in tempo reale con AllMySat

Download on the App Store